Wetbulb
58.29 58.49 59.11 59.17 59.69 60.01 60.05 60.12 60.14 60.27 59.97 59.81 59.09 58.79 58.48 58.69 58.93 58.72 52.84 60.03 60.43 69.07 73.75 67.85 63.40 63.44 66.23 62.95 65.84 65.68 59.74 56.68 56.55 57.38 58.79 63.85 62.65 64.42 65.97 63.46 64.35 64.97 64.95 67.16 70.04
58.33 58.88 58.79 59.31 59.57 59.74 59.79 59.85 59.85 59.79 59.68 59.23 58.27 58.39 58.65 58.58 56.80 54.66 62.77 67.89 70.39 72.48 65.05 60.39 58.19 60.04 60.32 57.50 63.96 61.84 59.61 57.57 61.00 62.14 60.61 63.55 62.75 63.25 62.39 61.98 61.95 63.71 67.02 69.20 69.52
58.10 58.68 58.93 59.15 59.37 59.41 59.52 59.76 59.46 59.28 59.04 58.90 57.59 58.03 58.67 59.25 53.28 51.02 67.86 70.04 73.64 70.18 63.29 61.63 60.40 58.57 56.10 59.08 61.83 62.42 57.96 60.96 62.21 64.00 64.33 63.09 62.21 64.04 62.09 60.31 62.84 62.59 65.91 68.07 68.50
58.12 58.73 58.79 58.94 58.97 59.15 59.23 59.39 58.97 58.68 58.58 57.87 57.52 58.13 58.49 57.65 47.50 59.81 71.84 71.31 73.58 62.52 58.93 58.61 59.02 54.54 53.59 53.37 58.51 57.26 61.38 62.17 62.95 63.87 64.39 62.52 64.09 62.15 62.84 62.56 65.26 66.02 67.69 68.05 67.86
57.70 58.32 58.44 58.44 58.52 58.63 58.70 58.59 58.18 57.86 57.94 57.85 58.01 57.76 57.63 51.64 51.15 59.58 73.81 71.54 67.19 59.28 55.32 54.83 54.79 53.51 53.69 54.26 58.91 59.27 60.45 62.58 63.25 65.01 64.63 64.50 62.44 61.96 62.44 64.99 66.23 67.01 67.64 67.20 67.64
57.67 57.75 57.85 57.85 57.93 58.03 58.09 57.59 57.28 56.87 57.67 57.86 58.49 58.23 54.83 46.83 55.43 65.94 68.25 66.00 62.10 57.67 55.12 55.44 54.02 56.01 55.06 53.80 55.17 60.52 62.59 63.33 64.64 63.96 64.06 62.16 61.82 62.60 63.89 65.72 65.22 65.79 66.18 66.82 67.31
57.10 57.10 57.03 57.19 57.38 57.38 57.02 56.30 55.78 55.74 57.36 57.80 59.03 58.11 53.97 50.46 58.20 66.43 65.48 60.93 59.79 56.81 54.62 55.18 57.29 56.54 55.90 52.65 64.56 63.49 60.67 61.90 62.59 63.42 62.54 63.26 59.79 59.98 64.60 65.14 64.23 64.71 65.66 66.28 67.24
57.06 56.81 56.75 56.77 56.74 56.29 55.76 54.84 55.51 57.25 57.77 58.50 60.25 58.09 51.57 55.34 59.11 63.97 58.43 55.31 58.38 55.70 56.05 56.50 57.44 55.43 54.75 55.09 62.21 60.07 59.82 56.27 60.00 62.93 63.36 62.61 57.43 62.47 64.56 63.76 63.09 63.87 64.80 65.61 66.58
56.90 56.52 56.42 56.14 55.86 55.26 54.15 54.60 58.55 59.65 60.06 60.79 57.59 54.78 51.11 61.91 57.67 59.41 56.08 55.48 56.70 55.11 55.46 56.63 55.72 52.83 53.43 51.74 51.91 56.34 51.50 54.63 57.19 62.86 62.25 61.47 59.38 62.68 64.31 63.71 62.89 63.48 64.15 64.98 65.74
56.49 56.45 56.16 55.94 55.62 54.23 53.68 54.28 60.21 60.62 60.20 60.17 59.18 53.19 54.51 54.09 58.09 56.87 56.35 55.44 53.36 53.37 52.37 52.20 52.06 50.73 50.91 50.11 46.48 47.72 51.49 54.86 55.39 58.82 61.59 60.16 59.75 63.04 63.81 63.13 63.32 63.55 64.27 64.66 65.14
55.86 55.62 55.60 55.47 54.80 53.09 53.04 57.63 54.11 53.40 56.73 53.68 53.87 51.43 53.61 58.35 58.41 55.99 56.35 53.18 52.37 51.27 48.25 49.82 48.87 48.63 50.45 50.35 49.55 50.68 50.09 48.60 52.09 56.55 58.24 57.55 58.07 60.64 63.92 63.35 62.86 63.38 63.64 64.30 64.92
55.33 55.27 55.17 54.88 53.91 53.00 53.26 53.68 55.46 55.55 52.16 55.49 56.11 55.29 56.63 57.80 55.03 54.48 56.20 51.80 50.62 47.35 48.47 48.22 47.58 49.42 49.50 48.52 47.94 47.49 46.58 47.85 50.75 55.67 57.88 56.08 56.49 60.79 63.03 62.89 63.65 63.45 63.54 64.21 65.22
55.01 54.84 54.42 54.01 52.98 52.38 53.01 55.06 56.94 56.98 52.09 52.32 54.91 55.20 56.20 57.47 54.51 54.99 55.68 54.27 51.34 49.21 47.60 47.66 48.70 49.77 48.35 47.39 46.83 47.22 46.30 47.32 47.67 52.80 57.41 57.15 55.29 58.44 61.67 63.41 63.66 64.43 65.05 65.18 65.26
54.72 54.46 53.83 52.42 51.44 52.36 54.03 56.90 56.34 56.43 49.07 49.36 51.36 54.81 56.23 56.77 53.66 58.48 57.46 56.58 51.75 50.03 49.18 49.53 50.82 48.03 47.63 47.69 48.17 46.12 49.34 48.21 47.91 47.77 45.31 57.15 48.03 56.43 58.30 60.87 62.34 63.22 63.97 64.27 64.82
54.40 53.84 52.55 50.81 49.47 52.02 55.17 55.71 55.92 53.84 42.53 51.44 51.84 58.69 56.89 54.66 55.20 55.37 56.93 55.87 51.73 50.48 50.27 47.89 48.51 48.10 47.74 48.64 49.32 47.85 49.14 47.77 48.16 48.40 48.84 51.76 50.95 53.24 58.18 58.33 61.11 63.49 64.05 64.98 65.73
53.72 52.70 51.32 50.08 50.28 53.69 54.93 55.30 54.86 47.78 42.12 49.01 52.31 51.74 52.38 54.13 52.32 54.56 54.36 55.85 53.98 50.07 49.82 50.07 50.51 49.51 49.98 50.24 50.20 49.92 48.34 47.37 51.70 52.13 45.53 49.33 50.79 49.14 54.45 57.55 57.77 61.74 64.74 65.37 65.95
52.13 50.90 50.19 51.93 52.81 54.25 55.35 55.37 47.27 43.72 50.87 48.03 48.73 51.76 50.64 51.40 50.91 53.16 52.16 51.15 50.26 47.10 47.40 48.97 49.42 51.21 50.93 48.63 49.25 48.57 47.86 44.50 42.40 44.27 42.81 48.62 50.47 50.91 56.16 58.51 59.06 59.09 61.54 65.77 66.62
50.74 49.80 51.10 52.44 54.56 54.69 56.04 52.33 41.93 45.95 48.11 51.23 51.27 49.48 48.77 49.66 50.64 50.56 51.16 49.76 51.75 49.71 47.84 46.91 45.52 49.96 52.24 51.06 50.16 48.91 49.09 44.88 39.64 40.58 43.50 45.92 44.31 48.66 56.09 58.34 59.81 60.99 62.36 65.42 66.45
50.05 53.01 53.57 56.21 55.10 54.91 54.94 44.90 44.16 46.59 50.03 50.00 49.78 46.54 47.08 48.01 49.40 49.28 50.93 50.82 52.54 52.30 48.18 47.16 46.46 51.02 51.29 52.42 52.61 47.08 46.35 49.02 44.84 42.38 42.49 46.17 48.86 51.09 54.08 54.70 56.40 59.71 62.95 64.82 65.90
50.35 53.78 55.73 56.20 56.02 55.60 51.58 42.51 47.07 49.99 51.48 51.28 47.12 48.38 46.45 48.24 48.09 48.55 48.01 49.60 50.95 52.24 54.82 50.98 46.43 51.80 52.75 52.23 50.21 50.03 49.98 45.30 46.04 41.57 40.44 44.16 44.35 46.27 52.31 53.64 55.83 56.66 61.08 64.70 66.36
49.85 55.03 57.15 56.70 56.10 53.67 46.22 45.54 48.32 52.49 52.25 50.55 49.15 48.88 48.31 48.18 48.82 48.25 47.92 50.28 52.62 50.67 52.55 52.06 49.43 48.54 50.77 49.72 49.84 48.33 48.14 46.64 46.89 45.90 43.16 42.13 45.53 53.20 54.14 56.10 55.77 56.66 58.81 60.93 65.97
47.95 52.67 56.06 56.46 53.07 48.88 49.39 49.03 47.58 52.25 52.84 51.63 51.39 50.64 49.24 48.94 48.52 48.82 47.85 50.36 54.10 52.35 49.26 51.46 49.65 46.53 48.50 51.36 51.60 51.41 50.55 49.85 45.73 44.30 44.25 43.82 45.38 54.18 55.03 55.63 55.65 57.96 60.64 62.17 64.26
48.83 49.80 56.77 55.97 49.65 48.63 49.09 49.27 50.16 49.63 49.76 49.95 48.76 50.10 50.97 49.33 48.06 48.26 50.60 53.81 53.16 54.46 51.11 50.35 47.60 45.18 47.02 48.51 49.40 48.78 49.77 50.82 49.52 48.32 47.12 44.28 46.80 54.20 54.42 56.21 58.34 58.65 62.37 64.21 63.73
51.32 49.78 52.80 52.08 49.82 48.46 47.48 47.77 47.28 50.46 49.49 49.42 49.19 50.67 49.90 49.39 49.95 48.84 50.26 52.39 52.88 53.71 54.80 55.09 48.84 47.78 44.78 47.41 49.31 48.08 48.20 47.62 48.79 46.56 47.81 46.90 49.63 53.75 55.81 55.47 56.35 57.41 62.08 64.21 65.03
49.34 46.59 46.64 47.21 48.24 47.15 46.63 46.39 45.95 47.08 49.56 49.72 48.81 48.59 48.24 47.54 48.87 48.65 49.86 50.74 51.87 53.58 52.50 53.07 48.70 47.52 49.49 49.90 49.36 49.63 49.75 48.85 46.08 49.18 47.27 50.04 48.86 53.77 56.58 56.15 58.72 61.79 63.33 63.86 64.79
47.88 46.87 48.23 47.24 45.11 45.53 44.26 45.52 45.20 46.27 47.19 47.14 47.05 48.46 48.45 48.42 48.18 47.75 48.58 49.24 50.60 51.90 51.14 50.84 49.06 49.30 48.06 50.93 50.34 48.74 51.14 50.43 48.96 48.24 47.81 49.04 50.08 55.93 57.44 59.50 60.85 61.94 63.12 64.01 64.79
47.78 48.21 47.26 42.89 44.95 45.23 45.66 45.34 45.62 46.86 48.80 49.27 48.44 47.59 47.31 48.10 49.93 51.37 51.35 50.42 50.38 50.08 49.72 49.58 49.51 47.50 44.68 49.21 49.27 45.71 49.81 51.09 51.70 52.05 51.36 48.87 53.43 56.64 58.12 60.36 61.70 62.73 63.12 64.12 64.91
MSLP
1018.11 1017.83 1017.57 1017.28 1016.92 1016.63 1016.33 1016.02 1015.76 1015.55 1015.34 1015.13 1014.91 1014.72 1014.49 1014.21 1013.74 1013.40 1011.97 1009.99 1010.00 1010.34 1010.73 1011.23 1011.29 1011.14 1011.16 1010.94 1011.02 1011.25 1011.19 1010.86 1010.66 1010.51 1010.21 1010.11 1010.23 1010.89 1011.08 1011.25 1011.84 1012.41 1012.59 1013.12 1014.21
1018.08 1017.79 1017.50 1017.20 1016.84 1016.49 1016.19 1015.86 1015.60 1015.37 1015.13 1014.96 1014.85 1014.66 1014.48 1014.33 1013.67 1011.95 1009.63 1009.68 1009.76 1010.15 1010.65 1010.71 1010.92 1010.96 1010.78 1010.81 1010.91 1010.91 1010.93 1010.50 1010.35 1010.23 1010.08 1010.05 1010.09 1010.41 1010.96 1011.28 1011.84 1012.50 1013.11 1013.55 1014.28
1018.07 1017.68 1017.35 1017.04 1016.72 1016.40 1016.07 1015.74 1015.43 1015.19 1014.97 1014.80 1014.70 1014.50 1014.35 1014.26 1013.08 1009.78 1008.82 1009.42 1009.72 1010.02 1010.22 1010.39 1010.49 1010.56 1010.44 1010.56 1010.60 1010.73 1010.35 1010.22 1010.03 1010.08 1010.23 1010.12 1010.19 1010.28 1010.50 1010.86 1011.14 1011.75 1012.90 1013.60 1014.19
1018.00 1017.64 1017.26 1016.89 1016.52 1016.21 1015.91 1015.58 1015.26 1015.02 1014.85 1014.72 1014.58 1014.35 1014.28 1014.00 1011.65 1009.21 1009.10 1009.34 1009.72 1009.96 1010.09 1010.22 1010.47 1010.31 1010.13 1010.02 1010.16 1010.30 1009.99 1010.13 1009.91 1009.98 1010.15 1010.13 1010.22 1010.25 1010.40 1010.50 1010.81 1011.63 1012.65 1013.46 1013.92
1017.86 1017.51 1017.16 1016.78 1016.41 1016.04 1015.72 1015.41 1015.13 1014.86 1014.63 1014.43 1014.36 1014.26 1014.09 1012.83 1010.22 1009.07 1008.82 1009.25 1009.78 1009.98 1009.74 1009.84 1009.95 1009.93 1009.69 1009.76 1009.82 1009.98 1009.80 1009.92 1009.85 1009.96 1010.15 1010.37 1010.20 1010.27 1010.35 1010.70 1011.12 1011.87 1012.74 1013.24 1013.69
1017.73 1017.31 1016.94 1016.57 1016.21 1015.83 1015.49 1015.16 1014.85 1014.62 1014.40 1014.24 1014.10 1014.16 1013.47 1011.53 1009.36 1009.23 1009.19 1009.57 1009.43 1009.74 1009.79 1009.72 1009.49 1009.59 1009.51 1009.56 1009.54 1009.69 1009.78 1009.81 1009.83 1010.04 1010.28 1010.28 1010.34 1010.46 1010.39 1010.86 1011.35 1011.93 1012.36 1012.95 1013.44
1017.59 1017.17 1016.76 1016.37 1015.96 1015.58 1015.18 1014.85 1014.57 1014.29 1014.06 1014.01 1013.98 1013.92 1012.79 1010.23 1009.42 1009.44 1009.62 1009.59 1009.74 1009.60 1009.51 1009.66 1009.61 1009.59 1009.51 1009.30 1009.49 1009.53 1009.64 1009.74 1009.77 1010.01 1010.07 1010.29 1010.24 1009.95 1010.27 1010.77 1011.21 1011.73 1012.16 1012.74 1013.19
1017.40 1016.95 1016.55 1016.17 1015.77 1015.34 1014.92 1014.56 1014.07 1013.71 1013.68 1013.82 1013.89 1013.64 1011.17 1009.34 1009.40 1009.38 1009.54 1009.78 1010.03 1009.82 1009.66 1009.67 1009.76 1009.59 1009.52 1009.56 1009.50 1009.37 1009.62 1009.63 1009.81 1010.05 1010.18 1010.25 1009.55 1009.68 1010.33 1010.66 1011.02 1011.50 1011.95 1012.44 1012.82
1017.13 1016.68 1016.25 1015.90 1015.54 1015.10 1014.69 1014.29 1013.66 1013.33 1013.50 1013.70 1013.82 1013.00 1010.07 1009.08 1009.12 1009.01 1009.15 1009.33 1009.86 1009.90 1009.83 1009.75 1009.70 1009.70 1009.69 1009.31 1009.37 1009.68 1009.49 1009.65 1009.58 1009.91 1009.97 1010.08 1009.35 1009.73 1010.22 1010.42 1010.68 1011.15 1011.43 1011.81 1012.32
1016.90 1016.43 1015.95 1015.46 1015.09 1014.80 1014.45 1014.21 1013.74 1013.50 1013.76 1013.70 1013.12 1012.50 1009.61 1008.53 1008.39 1008.77 1009.20 1009.20 1009.44 1009.80 1009.84 1009.83 1009.84 1009.58 1009.56 1009.22 1008.94 1009.32 1009.49 1009.63 1009.60 1009.74 1009.89 1009.76 1009.24 1009.26 1009.91 1010.15 1010.05 1010.44 1010.86 1011.17 1011.49
1016.70 1016.18 1015.70 1015.21 1014.72 1014.50 1014.28 1013.94 1013.91 1013.38 1012.81 1011.15 1010.66 1009.91 1008.76 1008.19 1008.21 1008.59 1008.78 1008.96 1009.30 1009.51 1009.33 1009.76 1009.45 1008.79 1008.93 1009.16 1009.40 1009.50 1009.47 1009.40 1009.54 1009.38 1009.49 1008.96 1008.55 1008.45 1009.04 1009.47 1009.68 1009.76 1010.20 1010.36 1010.42
1016.28 1015.71 1015.20 1014.72 1014.32 1013.84 1013.80 1012.58 1011.53 1011.37 1010.82 1010.02 1009.92 1009.39 1008.85 1008.35 1007.95 1008.31 1008.54 1008.46 1008.78 1008.87 1009.34 1009.62 1008.69 1009.18 1009.25 1009.49 1009.46 1009.41 1009.24 1008.87 1009.13 1009.25 1009.29 1008.50 1007.72 1007.57 1008.00 1008.13 1008.54 1008.95 1009.24 1009.49 1009.90
1015.90 1015.35 1014.84 1014.34 1014.04 1013.95 1012.93 1011.55 1011.14 1010.97 1010.41 1009.33 1009.06 1008.55 1008.28 1008.18 1007.84 1007.71 1007.92 1008.06 1008.31 1008.71 1008.84 1008.66 1008.79 1008.75 1009.07 1009.22 1009.18 1009.10 1008.95 1008.80 1009.21 1008.93 1008.64 1008.51 1007.20 1006.83 1007.00 1007.45 1007.75 1008.01 1008.30 1008.65 1008.99
1015.53 1014.99 1014.58 1014.10 1014.08 1013.08 1011.90 1011.09 1011.15 1010.99 1009.84 1008.77 1008.33 1007.76 1007.90 1007.63 1007.42 1007.12 1007.37 1007.43 1008.06 1008.31 1008.82 1008.69 1008.58 1008.73 1008.76 1008.65 1008.95 1008.46 1008.53 1008.78 1008.85 1008.82 1008.27 1008.46 1006.85 1006.32 1006.27 1006.50 1006.71 1006.71 1007.19 1007.37 1007.90
1015.06 1014.57 1014.32 1014.25 1013.64 1012.52 1011.45 1011.14 1011.04 1010.80 1008.81 1007.72 1007.47 1007.37 1007.44 1007.21 1006.84 1007.04 1007.10 1007.15 1007.43 1008.03 1008.54 1008.00 1008.11 1008.21 1008.10 1008.05 1008.53 1008.06 1008.45 1008.64 1008.56 1008.50 1008.54 1007.90 1007.34 1005.56 1005.85 1005.29 1004.98 1005.10 1005.46 1006.00 1006.59
1014.36 1013.93 1013.72 1013.73 1013.60 1011.60 1011.24 1010.98 1010.66 1009.75 1007.74 1006.88 1006.91 1007.00 1007.10 1006.85 1006.51 1006.77 1006.94 1007.05 1007.56 1007.92 1008.15 1007.92 1008.10 1007.85 1007.45 1007.57 1007.79 1007.98 1008.41 1008.48 1008.52 1008.50 1007.79 1007.04 1006.74 1004.63 1004.35 1003.89 1003.49 1003.62 1004.09 1004.73 1005.54
1013.58 1012.99 1013.08 1012.50 1011.83 1011.34 1011.04 1010.43 1009.75 1008.44 1007.27 1006.85 1006.53 1006.54 1006.54 1006.30 1006.25 1006.26 1006.43 1006.70 1006.93 1007.53 1007.43 1007.52 1007.21 1007.10 1007.20 1007.33 1007.84 1007.91 1007.72 1007.34 1007.71 1007.71 1006.82 1006.99 1006.32 1004.31 1003.55 1003.20 1003.21 1002.98 1003.47 1003.95 1004.60
1012.97 1012.48 1012.52 1012.10 1011.58 1011.24 1010.38 1009.85 1008.88 1007.84 1007.08 1006.73 1006.29 1006.30 1006.05 1005.84 1005.87 1006.08 1006.26 1006.47 1007.04 1007.05 1007.08 1006.61 1006.25 1006.22 1006.34 1006.30 1006.38 1006.85 1006.75 1006.58 1006.54 1006.71 1006.52 1006.79 1005.15 1003.62 1002.74 1002.38 1002.49 1002.63 1003.01 1003.36 1003.82
1012.50 1012.12 1011.97 1011.43 1011.32 1011.31 1010.05 1009.29 1008.38 1007.88 1007.35 1006.78 1006.20 1005.86 1005.75 1005.59 1005.51 1005.70 1005.88 1005.85 1005.98 1006.40 1006.57 1006.26 1005.91 1005.76 1005.75 1005.67 1005.86 1006.52 1006.60 1006.54 1006.39 1007.27 1006.65 1005.43 1004.35 1003.51 1002.19 1001.68 1001.79 1001.95 1002.55 1002.99 1003.43
1012.76 1011.80 1011.51 1011.33 1011.20 1010.66 1009.91 1009.23 1008.85 1008.34 1007.62 1007.17 1006.42 1006.11 1005.54 1005.36 1005.34 1005.45 1005.72 1005.79 1005.67 1005.88 1005.78 1006.01 1005.93 1005.18 1004.88 1005.42 1005.93 1005.65 1005.77 1006.28 1006.21 1005.78 1005.26 1004.70 1004.18 1002.81 1001.76 1001.22 1001.25 1001.70 1002.18 1002.60 1003.15
1012.54 1011.53 1011.23 1011.18 1011.04 1010.29 1009.89 1009.59 1009.02 1008.28 1008.02 1007.38 1006.87 1006.42 1005.92 1005.52 1005.36 1005.31 1005.54 1005.90 1005.80 1005.85 1005.98 1005.91 1006.06 1005.30 1005.03 1004.64 1004.43 1005.44 1005.29 1005.80 1005.94 1005.58 1004.67 1003.97 1002.65 1002.01 1001.56 1001.21 1001.30 1001.38 1002.08 1002.37 1002.70
1012.92 1011.66 1011.15 1010.92 1010.81 1011.15 1010.31 1009.97 1009.33 1008.41 1008.03 1007.61 1007.34 1006.95 1006.45 1006.03 1005.72 1005.59 1005.65 1005.80 1006.08 1005.86 1006.07 1006.17 1005.77 1005.04 1004.57 1004.61 1004.58 1004.41 1004.48 1004.81 1004.80 1005.11 1005.07 1004.23 1002.10 1001.48 1001.16 1001.08 1001.48 1001.42 1001.88 1002.16 1002.45
1014.05 1012.90 1011.37 1010.97 1010.92 1011.02 1010.77 1010.11 1009.54 1008.86 1008.42 1008.02 1007.62 1007.38 1007.00 1006.57 1006.53 1006.26 1006.21 1006.42 1006.34 1006.10 1006.07 1006.34 1006.09 1005.21 1004.37 1004.86 1005.01 1004.54 1004.30 1004.03 1004.16 1004.38 1003.61 1003.15 1001.27 1001.19 1001.26 1001.20 1001.06 1001.40 1001.82 1001.84 1002.32
1014.68 1013.49 1012.23 1011.94 1012.32 1011.65 1011.18 1010.56 1009.88 1009.43 1008.99 1008.81 1008.26 1007.80 1007.43 1007.12 1007.14 1006.80 1006.69 1006.74 1006.78 1006.66 1006.71 1006.50 1006.12 1005.64 1004.97 1004.74 1004.94 1004.62 1004.27 1004.42 1003.90 1003.18 1002.51 1002.09 1001.08 1000.75 1000.44 1000.74 1000.58 1001.08 1001.60 1001.75 1002.33
1015.49 1015.29 1015.15 1013.53 1012.98 1012.59 1012.08 1011.45 1010.58 1009.93 1009.63 1009.32 1008.87 1008.62 1008.37 1007.92 1007.71 1007.50 1007.44 1007.27 1007.15 1007.17 1007.11 1006.94 1006.34 1006.43 1005.88 1005.53 1005.50 1004.93 1004.36 1003.98 1003.78 1002.92 1002.11 1001.01 1001.07 1000.39 1000.32 1000.44 1000.52 1000.98 1001.45 1001.75 1002.30
1016.78 1016.36 1015.68 1014.76 1014.15 1013.34 1012.63 1012.00 1011.37 1010.96 1010.57 1009.84 1009.62 1009.24 1009.02 1008.78 1008.78 1008.34 1008.15 1007.90 1007.34 1007.34 1007.23 1007.40 1006.93 1006.97 1006.28 1005.69 1005.32 1004.77 1004.19 1003.77 1003.32 1002.95 1002.55 1001.87 1001.01 1000.34 1000.45 1000.67 1000.70 1000.97 1001.36 1001.57 1002.05
1018.04 1017.67 1016.77 1015.54 1014.52 1013.81 1013.01 1012.65 1012.15 1011.97 1011.18 1010.81 1010.66 1010.14 1009.66 1009.73 1009.78 1009.36 1009.02 1008.58 1008.25 1007.95 1007.61 1007.60 1007.28 1007.23 1006.34 1006.16 1005.51 1004.24 1003.79 1003.41 1002.74 1002.33 1001.93 1001.38 1000.89 1000.97 1000.74 1000.74 1000.67 1000.84 1001.21 1001.54 1001.95
Wind_Speed
12 11 12 12 12 12 12 12 12 12 11 11 10 10 10 11 13 2 6 5 7 13 11 10 2 5 4 1 1 1 1 2 0 2 2 1 4 3 2 9 3 2 3 5 17
13 13 12 12 12 13 12 13 13 13 12 11 10 9 8 8 3 9 9 8 8 18 11 12 8 6 3 1 2 2 1 2 2 2 2 2 5 9 5 7 3 4 7 17 17
13 13 13 13 13 13 13 13 14 13 12 11 10 8 6 5 3 5 3 13 14 13 9 7 10 5 2 1 3 3 3 2 1 4 1 1 4 5 7 7 7 7 15 17 16
13 13 13 14 14 14 13 14 14 13 12 10 8 6 4 3 3 3 5 14 15 8 10 9 8 4 3 3 3 4 6 5 2 2 4 5 4 4 8 1 3 12 17 15 16
14 14 14 14 14 14 14 14 14 14 12 10 6 4 3 2 7 4 3 17 12 8 10 8 9 4 3 2 2 4 4 2 2 1 2 2 3 2 9 3 11 16 16 15 14
14 15 15 15 15 15 15 15 15 14 11 7 4 2 2 4 3 3 12 15 14 12 10 9 6 5 3 1 3 3 4 1 3 2 2 3 3 3 2 10 13 15 15 13 14
15 16 16 16 16 16 17 17 17 14 10 5 4 3 2 9 3 6 10 7 11 6 9 5 3 4 0 0 1 1 0 1 0 2 1 2 6 9 6 11 14 14 13 12 13
17 17 17 17 17 17 18 18 16 11 6 6 7 2 7 2 3 6 6 7 7 3 2 2 2 0 2 1 1 3 2 4 1 3 3 3 5 2 11 13 14 15 12 12 13
17 18 18 18 17 17 17 16 11 7 9 11 4 2 6 1 3 6 3 9 10 0 1 4 2 0 3 2 2 2 4 4 4 4 1 3 6 5 12 13 14 14 14 13 12
18 18 18 18 16 16 14 12 6 9 6 4 3 4 4 2 5 7 3 13 5 7 4 3 2 4 3 5 6 1 3 3 5 1 6 7 16 11 9 14 15 15 14 14 14
19 18 18 17 17 15 7 4 4 4 4 6 2 2 2 2 7 4 5 7 5 4 8 4 7 12 10 5 1 1 5 9 5 5 6 12 15 13 10 15 15 15 16 16 19
20 19 18 18 16 7 5 3 3 3 5 8 8 8 5 4 1 4 10 6 7 9 5 6 15 7 5 4 3 3 7 12 4 2 7 9 15 13 13 17 18 18 18 19 16
20 20 18 16 17 3 3 3 4 3 3 1 4 5 4 8 4 7 14 7 6 6 7 10 0 11 9 6 6 5 10 11 6 6 7 7 9 6 6 14 16 18 20 19 19
20 19 17 19 2 2 4 4 4 4 3 3 3 2 5 6 4 5 11 8 3 10 6 6 4 6 7 8 8 16 9 13 11 5 6 2 7 6 3 9 16 19 21 21 21
21 19 14 7 5 4 4 5 3 4 2 3 4 5 5 8 5 7 5 5 7 6 7 4 6 10 12 14 11 9 4 5 2 2 4 5 6 5 2 8 15 18 22 23 23
23 19 13 2 3 5 5 3 4 4 2 4 4 4 9 4 3 5 9 3 3 4 4 8 1 4 6 6 15 4 5 2 4 2 5 4 7 8 6 10 9 6 17 22 23
25 21 4 3 1 5 5 3 2 3 2 3 3 5 5 8 4 8 13 14 9 7 8 5 13 7 6 6 4 6 7 4 5 5 7 2 7 13 12 16 14 15 9 15 20
27 8 6 3 3 6 2 2 4 1 1 2 1 3 8 8 6 5 12 12 11 3 2 4 4 9 9 15 8 11 11 5 7 7 4 2 6 6 11 11 9 11 9 11 17
19 0 2 3 4 3 1 3 2 3 2 4 0 3 6 4 5 5 10 15 13 17 9 5 5 3 8 6 11 7 7 1 4 1 5 4 7 11 15 14 7 6 5 10 14
3 2 4 5 3 1 1 1 2 3 4 1 1 1 4 7 7 9 8 3 8 14 19 5 8 8 10 6 3 7 11 5 3 9 11 5 6 10 11 14 9 6 6 9 12
1 2 2 3 3 2 2 2 3 4 4 2 1 2 2 3 4 6 8 4 2 4 12 9 7 4 3 7 11 6 5 3 1 4 9 11 8 6 12 13 11 10 7 8 13
3 1 4 3 1 1 2 2 2 2 2 1 1 3 3 2 4 4 5 2 3 4 8 8 5 7 13 0 2 5 10 9 8 6 2 4 10 5 12 9 9 14 9 7 11
3 3 2 3 2 2 1 2 2 3 3 3 2 2 1 2 4 3 4 2 5 3 6 8 4 4 5 5 3 7 8 14 9 4 12 11 10 3 5 9 11 12 6 6 6
2 1 2 3 2 1 1 0 2 2 1 3 3 1 1 2 1 3 5 2 3 3 4 4 4 6 9 6 2 5 6 8 15 9 9 11 15 11 12 9 11 8 6 5 5
4 3 2 3 3 2 1 1 1 1 2 3 2 4 3 3 1 3 2 1 1 2 3 4 8 4 8 10 8 11 14 9 13 15 11 11 11 10 8 7 8 5 3 4 6
4 3 1 1 3 3 1 3 3 1 2 1 3 6 2 3 2 3 1 2 3 1 3 2 4 3 5 9 8 11 13 12 13 12 11 8 10 11 6 6 9 6 5 7 9
2 0 3 1 1 3 1 1 2 3 3 1 5 4 4 2 7 9 8 8 6 3 3 3 5 5 11 6 10 16 12 16 15 11 12 13 13 4 7 8 8 6 7 9 9
Wind_Direction
359 352 348 342 337 335 332 330 329 329 327 329 325 318 315 324 310 210 243 221 186 162 137 137 134 136 165 169 183 119 39 7 112 187 158 153 171 116 100 141 150 38 144 132 143
354 348 343 340 336 333 331 329 329 329 328 329 328 318 315 328 302 260 239 184 169 145 148 161 155 160 182 144 155 230 216 234 200 185 212 129 160 151 159 155 154 104 100 134 146
353 344 341 338 335 332 328 327 327 328 328 328 327 316 315 317 272 247 180 186 169 156 145 146 151 170 229 201 182 155 249 192 235 192 231 177 150 172 165 200 198 179 148 150 157
347 343 339 336 333 330 326 324 324 324 324 325 319 320 310 244 177 83 120 173 171 157 139 135 153 188 225 233 185 250 257 242 327 34 196 227 161 190 190 347 175 149 154 158 171
345 340 335 332 330 327 324 322 322 321 320 316 311 310 259 231 254 360 130 162 163 172 168 159 169 184 243 221 229 243 310 199 222 357 198 188 217 258 210 122 133 142 159 171 180
343 339 335 332 329 327 324 321 318 314 307 299 287 274 237 256 76 26 135 149 165 169 168 168 192 207 282 255 293 319 269 291 28 94 130 223 217 252 175 148 144 159 170 178 186
342 338 335 333 330 328 324 320 314 305 288 258 210 220 228 248 4 122 138 165 161 184 168 189 143 200 205 284 350 69 329 264 358 161 142 184 229 228 160 163 162 176 175 184 193
336 335 334 333 330 327 323 321 312 294 245 186 173 232 252 211 49 137 143 104 178 72 119 196 180 65 266 332 49 338 23 341 105 186 130 211 288 259 164 168 179 182 186 190 201
331 330 329 329 327 326 323 321 321 104 134 145 158 246 262 316 214 158 153 145 154 14 63 106 147 173 175 181 191 32 308 294 309 194 149 232 288 59 178 189 191 193 195 200 200
328 326 325 324 322 325 319 307 78 112 126 207 244 260 241 212 144 136 129 142 134 145 138 149 96 194 144 202 242 271 300 267 282 169 227 248 261 259 188 203 209 200 203 205 210
325 321 320 320 320 319 299 151 190 174 217 217 172 274 293 19 147 143 164 139 121 155 178 163 204 210 202 184 137 243 279 276 274 257 248 254 271 280 216 210 215 215 207 212 216
324 322 323 322 326 335 173 225 115 23 285 230 245 276 281 334 66 118 169 162 165 175 142 167 230 197 189 174 207 233 286 281 283 211 224 294 279 272 220 217 213 209 214 216 219
322 323 324 324 325 182 253 239 106 169 251 259 188 228 219 179 224 192 182 157 162 154 187 216 276 181 180 179 215 243 263 279 294 318 249 284 267 267 223 229 223 221 218 219 219
322 322 325 326 231 338 236 133 330 212 290 147 193 186 156 164 211 174 183 167 151 197 170 251 195 145 181 222 231 261 262 263 264 291 309 333 298 274 267 237 231 230 221 217 216
321 321 319 310 323 220 85 334 147 206 173 135 123 134 154 198 117 181 184 164 190 166 193 214 195 195 232 239 198 248 207 238 249 278 279 213 261 279 273 262 245 231 227 222 216
324 320 317 164 209 262 312 307 203 240 131 127 119 158 161 197 141 122 173 111 123 162 224 256 220 211 233 189 195 116 197 112 77 168 238 225 235 280 262 251 277 249 227 225 216
326 321 225 188 55 323 300 192 221 231 337 79 100 159 176 181 164 174 177 188 185 195 229 238 237 229 199 222 178 211 225 228 217 209 271 82 219 260 275 267 263 282 292 231 212
328 327 186 243 300 328 219 158 226 82 356 14 41 159 193 167 197 154 173 191 215 149 144 229 233 196 179 216 217 200 225 228 256 246 278 130 236 247 254 279 275 269 270 239 206
320 133 148 321 252 273 179 200 258 202 326 331 278 166 196 190 207 171 193 210 208 201 218 208 246 202 207 172 206 162 203 302 204 99 245 266 271 268 265 275 261 283 242 221 209
341 332 30 356 138 255 150 247 256 248 309 256 268 260 184 178 187 192 176 184 218 207 217 218 268 256 270 160 96 229 140 190 203 254 262 230 271 262 274 283 292 270 259 232 209
333 122 24 359 270 68 215 215 267 255 250 259 247 268 255 208 198 174 180 161 240 146 200 207 237 216 201 211 215 166 202 78 262 261 275 271 255 218 249 266 285 294 288 267 218
336 118 20 294 164 19 161 204 311 310 4 303 248 261 261 223 198 202 163 204 351 186 161 188 208 242 234 268 294 250 261 214 248 203 243 306 269 249 245 268 270 278 287 279 238
20 310 15 292 233 131 288 273 280 329 339 350 305 359 253 235 221 194 168 145 10 159 166 168 210 248 227 155 144 223 206 225 238 249 239 258 268 236 269 260 261 268 291 291 236
323 314 23 60 21 60 13 33 275 340 274 352 296 302 316 192 45 184 172 183 341 63 45 188 177 256 271 318 10 246 228 224 232 230 229 237 266 275 285 275 285 273 252 256 209
6 61 24 359 79 17 262 312 247 297 359 358 182 41 322 254 212 211 196 235 216 56 95 232 253 216 262 270 258 262 269 229 220 245 226 246 214 256 262 275 287 320 252 187 203
355 343 18 313 294 274 208 188 223 273 280 268 306 331 331 218 352 238 289 198 232 173 180 161 215 189 262 275 273 265 266 270 235 231 253 268 253 245 269 269 264 260 250 223 213
23 303 286 46 326 264 204 147 170 352 228 320 5 303 241 74 318 290 274 292 295 282 219 243 181 204 259 268 294 270 248 249 247 234 234 242 249 301 258 267 288 276 231 235 218